[Iaude] MPEC M64: 2010 GG7 [a=1.78,e=0.34,i=13.1,H=21.75]

mpec at marsden.cfa.harvard.edu mpec at marsden.cfa.harvard.edu
Fri Jun 24 10:07:55 EDT 2022


M.P.E.C. 2022-M64                                 Issued 2022 June 24, 14:06 UT

     The Minor Planet Electronic Circulars contain information on unusual
         minor planets and routine data on comets.  They are published
    on behalf of Division F of the International Astronomical Union by the
          Minor Planet Center, Smithsonian Astrophysical Observatory,
                          Cambridge, MA 02138, U.S.A.

             Prepared using the Tamkin Foundation Computer Network

                              MPC at CFA.HARVARD.EDU
            URL https://www.minorplanetcenter.net/    ISSN 1523-6714

                                    2010 GG7                                    


                           Revision to MPEC 2010-G38                            

Additional Observations:
     K10G07G  C2010 06 01.35579016 00 18.545+31 01 24.13         21.58GVEM064F51
     K10G07G  C2010 06 01.35791016 00 18.580+31 01 18.68         21.32GVEM064F51
     K10G07G  C2010 06 01.36810416 00 18.775+31 00 52.61         20.98GVEM064F51
     K10G07G  C2010 06 01.37037816 00 18.822+31 00 46.93         21.37GVEM064F51
     K10G07G  C2010 06 04.32075716 01 56.783+28 50 02.73         21.48GVEM064F51
     K10G07G  C2010 06 04.33256116 01 57.048+28 49 30.76         21.27GVEM064F51
     K10G07G  C2010 06 07.50312016 03 44.308+26 20 19.06         21.43GVEM064F51
     K10G07G  C2010 06 07.51550716 03 44.638+26 19 42.64         20.74GVEM064F51
     K10G07G  C2010 06 08.34008916 04 16.170+25 39 36.54         20.94GVEM064F51
     K10G07G  C2010 06 12.52309916 06 52.348+22 08 37.84         20.47GVEM064F51
     K10G07G  C2010 07 01.37706816 23 01.915+05 20 59.33         21.05GVEM064F51
     K10G07G  C2010 07 01.38879516 23 02.546+05 20 22.85         21.61GVEM064F51
     K10G07G  C2022 06 04.53870821 17 31.356-00 43 37.37         23.02GVEM064F52
     K10G07G  C2022 06 04.56441121 17 32.927-00 43 53.14         22.91GVEM064F52
     K10G07G  C2022 06 04.57722721 17 33.671-00 44 00.95         22.40GVEM064F52
     K10G07G  C2022 06 21.54351321 29 21.449-04 46 48.95         22.35GVEM064F52
     K10G07G  C2022 06 21.55566921 29 21.571-04 47 02.31         22.44GVEM064F52
     K10G07G  C2022 06 21.56787621 29 21.658-04 47 15.91         21.85GVEM064F52
     K10G07G  C2022 06 21.58004121 29 21.760-04 47 29.30         22.39GVEM064F52
     K10G07G KC2022 06 23.41556221 29 44.524-05 22 34.75         22.47GVEM064V06
     K10G07G KC2022 06 23.41953321 29 44.538-05 22 39.79         22.80GVEM064V06
     K10G07G KC2022 06 23.42350521 29 44.549-05 22 44.18         21.79GVEM064V06
     K10G07G KC2022 06 23.42747821 29 44.552-05 22 49.08         21.45GVEM064V06

Observer details:
F51 Pan-STARRS 1, Haleakala.  Observers J. Bulger, K. Chambers, T. Lowe, A.
    Schultz, I. Smith.  Measurers S. Chastel, J. Fairlamb, M. Huber, Y.
    Ramanjooloo, R. Wainscoat, R. Weryk.  1.8-m Ritchey-Chretien + CCD.
F52 Pan-STARRS 2, Haleakala.  Observers J. Bulger, K. Chambers, T. Dukes, T.
    Lowe, A. Schultz, I. Smith.  Measurers S. Chastel, J. Fairlamb, M. Huber,
    Y. Ramanjooloo, R. Wainscoat, R. Weryk.  1.8-m Ritchey-Chretien + CCD.
V06 Catalina Sky Survey-Kuiper.  Observer R. A. Kowalski.  Measurers E. J.
    Christensen, D. Fay, J. B. Fazekas, D. C. Fuls, A. R. Gibbs, A. D. Grauer,
    H. Groeller, J. K. Hogan, R. A. Kowalski, S. M. Larson, G. J. Leonard, D.
    Rankin, R. L. Seaman, A. Serrano, F. C. Shelly, K. W. Wierzchos.  1.55-m
    reflector + 1K CCD.

First and last observations above in comparison with prediction:
Residuals in seconds of arc (or two decimals in degrees), reference and Delta-T
100601 F51 0.00+ 0.00+    220623 V06 0.04+ 0.01+    MPO190721   +0.03 days

Orbital elements:
2010 GG7                                                 Earth MOID = 0.2926 AU
Epoch 2022 Aug. 9.0 TT = JDT 2459800.5                  Veres                   
M  54.83607              (2000.0)            P               Q                  
n   0.41393576     Peri.   97.86378     -0.73554341     +0.65003716             
a   1.7831207      Node   122.90778     -0.67580723     -0.68424014             
e   0.3350381      Incl.   13.14036     -0.04754452     -0.33055578             
P   2.38           H   21.75          G   0.15           U   1                  
Residuals in seconds of arc
100406 G96  0.3-  0.1+    100407 G96  0.1-  0.4+    100608 F51  0.1-  0.1-
100406 G96  0.3-  0.2-    100407 G96  0.1+  0.1+    100612 F51  0.3+  0.1+
100406 G96  0.5-  0.3-    100409 926  0.4+  0.1-    100613 H21  0.4-  0.4-
100406 G96  0.1-  0.2-    100409 926  0.1-  0.1+    100613 H21  0.0   0.4+
100406 926  0.2-  0.0     100409 926  0.3+  0.5+    100613 H21  0.3+  0.5+
100406 926  0.1-  0.3-    100415 H21  0.5-  0.1+    100701 F51  0.0   0.2-
100406 691  0.6+  0.1-    100415 H21  0.1-  0.9+    100701 F51  0.1-  0.2-
100406 691  0.3-  0.3-    100415 H21  0.2-  1.1+    100706 H21  0.1+  0.4+
100406 691  0.6+  0.6-    100505 691  0.3-  0.4+    100706 H21  0.3+  0.5+
100406 G96  0.1-  0.2+    100505 691  0.4-  0.1+    100706 H21  0.4+  0.3-
100406 G96  0.5-  0.1+    100505 691  0.2-  0.5-    220604 F52  0.1+  0.0
100406 G96  0.1-  0.3+    100524 H21  0.2+  0.2-    220604 F52  0.1+  0.0
100406 587  0.6-  0.1-    100524 H21  0.2+  0.0     220604 F52  0.4-  0.1+
100406 587  1.0-  0.2+    100601 F51  0.0   0.3+    220621 F52  0.0   0.3-
100406 B04  0.1+  0.1-    100601 F51  0.1-  0.2+    220621 F52  0.2+  0.0
100406 B04  0.2+  0.1+    100601 F51  0.1-  0.1+    220621 F52  0.1-  0.0
100406 B04  0.2+  0.1-    100601 F51  0.1-  0.2+    220621 F52  0.1-  0.2+
100407 473  0.1-  0.3+    100601 291  0.0   0.1-    220623 V06  0.1+  0.2+
100407 473  0.1+  0.0     100601 291  0.0   1.5-    220623 V06  0.1+  0.1-
100407 J04  0.3+  0.2-    100604 F51  0.0   0.2+    220623 V06  0.0   0.1+
100407 J04  0.1-  0.2+    100604 F51  0.1+  0.2+    220623 V06  0.1-  0.1-
100407 J04  0.4-  0.2+    100607 F51  0.1-  0.2+
100407 G96  0.5+  0.1+    100607 F51  0.0   0.3+

Ephemeris:
2010 GG7                 a,e,i = 1.78, 0.34, 13                  q = 1.1857
Date    TT    R. A. (2000) Decl.     Delta      r    Elong.  Phase     V
2022 05 25    21 03 17.7 +00 40 42   0.5846  1.2887   104.3    49.6    23.0
...
2022 06 09    21 22 00.5 -01 33 37   0.5519  1.3432   114.8    43.3    22.8
...
2022 06 17    21 27 37.9 -03 27 32   0.5355  1.3750   121.7    38.9    22.6
...
2022 06 23    21 29 40.2 -05 14 19   0.5250  1.4000   127.6    35.1    22.5
2022 06 24    21 29 49.2 -05 33 55   0.5234  1.4042   128.7    34.4    22.5
2022 06 25    21 29 54.9 -05 54 02   0.5219  1.4084   129.7    33.7    22.5
...
2022 07 01    21 29 20.3 -08 05 08   0.5148  1.4343   136.4    29.2    22.4
...
2022 07 09    21 25 37.9 -11 23 48   0.5116  1.4696   146.2    22.6    22.2
...
2022 07 24    21 11 30.4 -18 07 56   0.5321  1.5374   165.8     9.3    21.9

A. U. Tomatic                (C) Copyright 2022 MPC           M.P.E.C. 2022-M64




More information about the Iaude mailing list